Regional Weather Roundup
Issued by NWS Wakefield, VA

Home | Current Version | Previous Version | Text Only | Print | Product List | Glossary On
Versions: 1 2 3 4 5 6 7 8 9 10 11 12 13 14 15 16 17 18 19 20 21 22 23 24 25 26 27
000
ASUS41 KAKQ 010515
RWRAKQ

REGIONAL WEATHER ROUNDUP
NATIONAL WEATHER SERVICE WAKEFIELD VA
100 AM EDT THU SEP 01 2016

Note: "fair" indicates few or no clouds below 12,000 feet with no
significant weather and/or obstructions to visibility. * = Denotes
station may not report precipitation (e.g., rain,snow,etc.),
thunder or fog.

VAZ042-051-052>054-056-010600-
NORTHERN VIRGINIA

CITY           SKY/WX    TMP DP  RH WIND       PRES   REMARKS
WASH NATIONAL  CLOUDY    80  71  74 W5        29.88S
DULLES         LGT RAIN  74  71  91 CALM      29.89S
FORT BELVOIR   PTCLDY    77  67  71 CALM      29.87S
QUANTICO       MOCLDY    77  67  71 SW6       29.88S
FREDERICKSBRG* PTCLDY    73  72  95 S5        29.87S
STAFFORD*      PTCLDY    71  69  92 CALM      29.92S
WARRENTON      MOCLDY    73  65  78 CALM      29.88F
CULPEPER*      CLEAR     71  70  96 CALM      29.90S
MANASSAS*      MOCLDY    75  70  83 CALM      29.88F
LEESBURG*      CLOUDY    77  68  73 NE5       29.89F
WINCHESTER     PTCLDY    77  63  61 CALM      29.90S
FRONT ROYAL*   FAIR      72  68  88 CALM      29.89F
LURAY*         FAIR     N/A N/A N/A CALM      29.91S
$$

VAZ048-049-060>072-079>083-010600-
CENTRAL AND SOUTH CENTRAL VIRGINIA

CITY           SKY/WX    TMP DP  RH WIND       PRES   REMARKS
RICHMOND       CLOUDY    74  72  93 CALM      29.90F
CHESTERFIELD*  MOCLDY    79  59  50 S5        29.92S
PETERSBURG*    CLEAR     73  73  98 CALM      29.91S
HANOVER        CLOUDY    73  70  90 CALM      29.91F
TAPPAHANNOCK*  LGT RAIN  74  74 100 CALM      29.90S
QUINTON*       MOCLDY    76  72  89 S5        29.90F
CHARLOTTSVILLE PTCLDY    72  69  90 S3        29.90S
GORDONSVILLE*  MOCLDY    72  72 100 CALM      29.90S
ORANGE*          N/A     72  72 100 CALM      29.91F
LOUISA*        PTCLDY    75  73  94 S3        29.89S
BUMPASS*       FAIR      71  70  98 CALM      29.89S
FARMVILLE*     PTCLDY    76  75  95 S6        29.89F
CREWE*         FAIR      75  73  95 CALM      29.90F
FORT PICKETT*  FAIR      74  73  98 SW6       29.91F
CHASE CITY*    FAIR      77  70  80 CALM      29.92F
CLARKSVILLE*   FAIR      73  70  88 S5        29.92F
SOUTH HILL*    PTCLDY    73  71  93 SW5       29.97F
LAWRENCEVILLE* FAIR      74  72  93 SW3       29.91F
EMPORIA*       CLEAR     72  68  88 CALM      29.92F
$$

VAZ088>098-010600-
SOUTHEAST VIRGINIA

CITY           SKY/WX    TMP DP  RH WIND       PRES   REMARKS
NORFOLK        PTCLDY    76  72  87 S6        29.90F
VIRGINIA BEACH MOCLDY    76  70  82 SW5       29.89F
NORFOLK NAVAL  MOCLDY    78  72  81 S5        29.91F
WEST POINT*    PTCLDY    77  70  79 CALM      29.91F
SALUDA*        FAIR      76  70  84 CALM      29.89S
NEWPORT NEWS   CLEAR     78  73  84 SW8       29.90F
LANGLEY AFB    CLEAR     78  73  84 SW5       29.89F
FORT EUSTIS    PTCLDY    78  73  84 S6        29.87F
WILLIAMSBURG*  CLEAR     79  73  83 S3        29.91S
HR EXEC AP*    FAIR      73  70  88 S3        29.92F
FRANKLIN*      CLEAR     73  71  92 S3        29.91F
US460-WAKEFLD  MOCLDY    75  71  87 CALM      29.90F
$$

VAZ020-022-025-037-045-010600-
WEST CENTRAL AND SOUTHWEST VIRGINIA

CITY           SKY/WX    TMP DP  RH WIND       PRES   REMARKS
STAUNTON*      PTCLDY    68  67  98 CALM      29.94F
WAYNESBORO*    FAIR      69  67  95 CALM      29.94F
HOT SPRINGS VA CLOUDY    68  61  80 W6        30.07F
LYNCHBURG      MOCLDY    71  68  90 CALM      29.94S
DANVILLE       CLOUDY    74  69  85 W6        29.94R
SOUTH BOSTON*  MOCLDY    76  71  84 CALM      29.92F
MARTINSVILLE   CLOUDY    73  69  87 CALM      29.98F
ROANOKE        CLOUDY    71  69  93 CALM      29.96F
BLACKSBURG     PTCLDY    66  66  99 CALM      30.04F FOG
DUBLIN*        PTCLDY    68  68  99 CALM      30.03S
MARION*        CLOUDY    66  65  95 CALM      30.06F
HILLSVILLE*    CLOUDY    67  67 100 S3        30.03F
RICHLANDS*     FAIR      68  68 100 CALM      30.04S
WISE*          CLEAR     68  63  83 CALM      30.05S
ABINGDON*      CLEAR     71  67  88 CALM      30.02S
$$

MDZ021>025-VAZ099-100-010600-
SOUTHERN MARYLAND AND THE DELMARVA PENINSULA

CITY           SKY/WX    TMP DP  RH WIND       PRES   REMARKS
PATUXENT RIVER CLOUDY    78  69  73 SW9       29.87F
BAY BRIDGE APT CLOUDY    81  72  74 MISG      29.87S
LEONARDTOWN    MOCLDY    73  70  88 SW5       29.89F
DOVER          CLOUDY    75  74  99 S6        29.86F
GEORGETOWN     PTCLDY    72  69  90 S5        29.89F
EASTON         CLOUDY    78  74  90 S7        29.90F
CAMBRIDGE      CLOUDY    77  70  78 S7        29.87F
SALISBURY      PTCLDY    72  69  90 CALM      29.89F
OCEAN CITY     CLEAR     78  70  76 SW7       29.89F
WALLOPS ISLAND CLEAR     77  73  87 SW7       29.89F
ACCOMACK*      CLEAR     74  69  83 S3        29.89F
$$

NCZ012>017-030>032-010600-
NORTH CENTRAL AND EASTERN NORTH CAROLINA

CITY           SKY/WX    TMP DP  RH WIND       PRES   REMARKS
ROANOKE RAPIDS FAIR      72  70  94 S3        29.92S
RALEIGH        PTCLDY    75  71  87 SW5       29.94S
ELIZABETH CITY CLOUDY    75  73  93 S3        29.91F
AHOSKIE*       PTCLDY    72  71  97 CALM      29.92S
EDENTON*       CLOUDY    80  80 100 SW5       29.92F
CURRITUCK*       N/A     76  75  99 CALM      29.92S
KILL DEVIL HLS LGT RAIN  78  77  96 CALM      29.90F
MANTEO         CLOUDY    80  76  89 SW8       29.92S
CAPE HATTERAS  CLOUDY    81  72  74 S5        29.92S
TARBORO*       FAIR      75  73  93 CALM      29.93S
GOLDSBORO      MOCLDY    74  74 100 S2        29.91F
WASHINGTON     CLOUDY    74  72  91 CALM      29.93S
GREENVILLE     CLEAR     72  72 100 CALM      29.94F
NEW BERN       CLOUDY    74  72  93 CALM      29.94S
WILMINGTON     CLOUDY    74  72  93 N3        29.91F
$$

VAZ048-010600-
ELSEWHERE

CITY           SKY/WX    TMP DP  RH WIND       PRES   REMARKS
HARRISBURG PA  CLOUDY    74  73  97 S3        29.89S
BALTIMORE      LGT RAIN  76  70  82 NE8       29.87F
ANNAPOLIS      CLOUDY    80  71  74 NW7       29.87R
ANDREWS AFB    PTCLDY    76  69  78 N5        29.87S
PHILADELPHIA   LGT RAIN  76  71  85 W7        29.89S
HENDERSON NC   CLEAR     70  67  90 CALM      29.93F
GREENSBORO     MOCLDY    76  70  82 SW8       29.95S
ROCKY MOUNT    CLOUDY    74  73  97 CALM      29.93S
$$

VAZ100-010600-
MARINE

STATION/POSITION TIME  TEMP    WIND        PRES    WAVE   SWELL
                       AIR SEA DIR/SP/G            HT/PER HT/PER
                 (UTC) (F)     (DEG/KT/KT) (MB)    (FT/S) (FT/S)
BRANDYWINE LGT   0400   75     200/ 11/ 13   N/A
CAPE MAY NJ      0400   76 79  180/  6/ 10 1011.6F
LEWES DE         0400   76 77  190/  5/  7 1012.0F
OCEAN-CITY-INLET 0400   79 79  210/ 10/ 12 1012.8F
WACHAPREAGUE VA  0400   79 83  200/  8/ 10 1012.8F
THOMAS POINT MD  0500   80 82  200/ 16/ 19 1012.6R
GOOSES REEF MD   0500   80 83  210/ 14/ 17 1011.7F   2/ 3
COVE POINT MD    0400   80     210/ 13/ 17 1012.4F
SOLOMONS ISLAND  0400   80 85  220/ 12/ 14   N/A
BISHOPS HEAD MD  0400   81 83  170/ 13/ 15 1012.2F
PINEY POINT MD   0400          210/  3/  4   N/A
POTOMAC MD       0500   79 83  260/  8/ 10 1011.1S   1/ 3
CAMBRIDGE MD     0400   77 83  170/  4/  7 1011.2F
LEWISETTA VA     0400   77 84  250/  9/ 10 1011.9F
RAPPAHANNOCK LGT 0400          170/ 12/ 13 1013.1F
STINGRAY PT      0500   81 84  150/ 12/ 14 1012.3F   1/ 2
YORK RVR RNG VA  0400   81     210/ 10/ 12 1012.1F
YORKTOWN VA      0400   79     200/  4/  5 1012.2F
JAMESTOWN VA     0500   77 85  190/  4/  6   N/A     0
DOMINION TERM VA 0400   80     180/  8/  9 1012.8F
KIPTOPEKE VA     0400      82  190/ 11/ 13   N/A
CHES BAY BRIDGE  0412   79 79  170/  8/  9 1012.6F
CAPE HENRY VA    0400   76     170/  5/  5   N/A
WILLOUBY STN VA  0400   80     170/ 10/ 11   N/A
CAPE HENRY BUOY  0412      79                N/A     2/10   2/12
1ST LANDING BUOY 0500   79 80  210/  8/ 10 1012.1F   1/ 5
CAPE CHARLES BUO 0426      80                N/A     3/12   2/12
OFFSHORE WE BUOY 0421      81                N/A     3/11   2/11
64NM E OF VA BCH 0450   79 81  230/  4/  6 1012.6F   3/ 9   3/ 9
DUCK PIER NC     0400   80 80  180/  3/  5 1012.6F
44056 DUCK FRF   0411      80                N/A     3/10   2/11
OREGON INLET NC  0400   80 84  170/  5/  5 1013.0F
HATTERAS NC      0400   81 84  180/  3/  5 1012.9F
DIAMOND SHLS NC  0450   82 85  180/  8/ 10 1013.1F   3/11   3/11
CAPE LOOKOUT NC  0500   81     140/ 10/ 11 1012.5F
$$




USA.gov is the U.S. government's official web portal to all federal, state and local government web resources and services.